Weather Roundup
Issued by NWS

Home | Current Version | Previous Version | Graphics & Text | Print | Product List | Glossary Off
Versions: 1 2 3 4 5 6 7 8 9 10 11 12 13 14 15 16 17 18 19 20 21 22 23 24 25 26 27 28 29 30 31 32 33 34 35 36 37 38 39 40 41 42 43 44 45 46 47 48 49 50

002
NZUS93 KARX 221810
HRRWXR

CURRENT HOURLY OBSERVATIONS ACROSS
MUCH OF THE UPPER MISSISSIPPI VALLEY
NATIONAL WEATHER SERVICE LA CROSSE WI
100 PM CDT THU JUN 22 2017


...SOUTHEAST MINNESOTA...


CITY           SKY/WX    TMP DP  RH WIND       PRES   REMARKS
ROCHESTER      CLOUDY    70  68  93 SE8       29.74F
ROCHESTER/MAYO CLOUDY    67  67 100 SE3       29.74F
WINONA         DRIZZLE   70  64  83 W8        29.76R
AUSTIN         CLOUDY    70  66  88 E5        29.73F
ALBERT LEA     CLOUDY    70  68  94 E7        29.74R
DODGE CENTER   RAIN      70  66  88 CALM      29.75F
PRESTON        LGT RAIN  67  64  92 W3        29.79R
OWATONNA       TSTM      68  64  88 SE14      29.72F
FARIBAULT      CLOUDY    70  66  88 E9        29.70R THUNDER
$$

...ELSEWHERE IN MINNESOTA...


CITY           SKY/WX    TMP DP  RH WIND       PRES   REMARKS
MINNEAPOLIS    LGT RAIN  70  66  87 VRB3      29.70F
INTNL FALLS    MOSUNNY   72  44  36 VRB5G17   29.64F
DULUTH         CLOUDY    71  51  49 W7        29.71R
RED WING       CLOUDY    72  66  83 E3        29.69F
REDWOOD FALLS  TSTM      68  64  87 NW7       29.76R FOG
MANKATO        CLOUDY    74  68  81 E13       29.69R
WORTHINGTON    CLOUDY    74  64  71 E12       29.74R
FAIRMONT       MOSUNNY   77  67  71 E16G24    29.69F
$$

...SOUTHWEST WISCONSIN...


CITY           SKY/WX    TMP DP  RH WIND       PRES   REMARKS
LA CROSSE      LGT RAIN  70  68  93 NW12      29.75R
PRAIRIE DU CHI CLOUDY    70  68  95 E3        29.72F
BOSCOBEL       CLOUDY    73  68  84 VRB3      29.76R
LONE ROCK      LGT RAIN  71  66  84 N6        29.77R
PLATTEVILLE    CLOUDY    78  69  72 S12G20    29.77S
FORT MC COY    LGT RAIN  66  65  97 N5        29.74F
CAMP DOUGLAS   LGT RAIN  68  66  94 NW3       29.76F FOG
MAUSTON-NEW LI RAIN      70  66  85 W8G20     29.78R
VIROQUA        CLOUDY    68  66  94 CALM      29.76F
WIS DELLS      DRIZZLE   67  65  91 NW5       29.81R
$$

...ELSEWHERE IN WISCONSIN...


CITY           SKY/WX    TMP DP  RH WIND       PRES   REMARKS
MILWAUKEE      PTSUNNY   85  67  54 SW23G29   29.76F
MADISON        CLOUDY    77  67  71 SW3       29.74F
GREEN BAY      CLOUDY    77  69  76 SW10      29.72F
EAU CLAIRE     LGT RAIN  68  68 100 NE6       29.69F FOG
BLACK RVR FLS  RAIN      67  67 100 E8        29.66F
MEDFORD        HVY RAIN  67  64  92 W10       29.81R
WAUSAU         RAIN      69  68  96 SW8       29.76R FOG
WIS RAPIDS     CLOUDY    72  68  87 W8        29.79R
MARSHFIELD     HVY RAIN  67  64  90 SW8G20    29.79R VSB 1/4
RICE LAKE      RAIN      64  62  93 SE6       29.74F
$$

...NORTHEAST IOWA...


CITY           SKY/WX    TMP DP  RH WIND       PRES   REMARKS
WATERLOO       MOSUNNY   76  68  76 S10       29.71F
DUBUQUE        CLOUDY    79  67  66 S14       29.77F
DECORAH        CLOUDY    72  68  88 CALM      29.75R
MASON CITY     CLOUDY    75  68  78 N8        29.73F
CHARLES CITY   MOSUNNY   77  72  83 S10G17    29.75R
OELWEIN        PTSUNNY   75  70  83 S15G22    29.74F
$$

...ELSEWHERE IN IOWA...


CITY           SKY/WX    TMP DP  RH WIND       PRES   REMARKS
DES MOINES     CLOUDY    79  68  69 S7        29.70F
IOWA CITY      MOSUNNY   85  69  58 S8        29.76F
FORT DODGE     CLOUDY    84  64  51 SE9       29.68F
MARSHALLTOWN   CLOUDY    75  70  84 S10       29.71F
CEDAR RAPIDS   CLOUDY    77  72  84 E7        29.76F
$$

...NORTHERN ILLINOIS...


CITY           SKY/WX    TMP DP  RH WIND       PRES   REMARKS
CHICAGO-OHARE  PTSUNNY   87  66  49 S20G25    29.80F
CHICAGO-MIDWAY CLOUDY    85  70  60 SW15      29.82S
MOLINE         CLOUDY    86  69  56 S10       29.75F HX  90
ROCKFORD       PTSUNNY   86  68  54 SW14G22   29.81F
PEORIA         CLOUDY    81  71  71 S15G21    29.81F
$$

NOTE: "FAIR" INDICATES FEW OR NO CLOUDS BELOW 12,000 FEET WITH NO
SIGNIFICANT WEATHER AND/OR OBSTRUCTIONS TO VISIBILITY. WIND
SPEEDS ARE IN MILES-PER-HOUR.




USA.gov is the U.S. government's official web portal to all federal, state and local government web resources and services.